Terminal Aerodrome Forecast
Issued by NWS

Home | Current Version | Previous Version | Text Only | Print | Product List | Glossary On
Versions: 1 2 3 4 5 6 7 8 9 10 11 12 13 14 15 16 17 18 19 20 21 22 23 24 25 26 27 28 29 30 31 32 33 34 35 36
000
FTAK31 PANC 281244 AAA
TAFASN
TAF AMD
PASN 281244Z 2813/2912 23013KT 6SM BR SCT006 OVC020
      TEMPO 2813/2815 4SM BR BKN007
     FM281500 22011KT 4SM BR OVC015
     FM290000 16015KT P6SM BKN030=

USA.gov is the U.S. government's official web portal to all federal, state and local government web resources and services.